Time,TemperatureF,DewpointF,PressureIn,WindDirection,WindDirectionDegrees,WindSpeedMPH,WindSpeedGustMPH,Humidity,HourlyPrecipIn,Conditions,Clouds,dailyrainin,SoftwareType,DateUTC
2013-03-13 00:02:00,19.0,16.0,-100.00,NNW,330,23.0,27.0,86,0.00,,,0.00,,2013-03-13 05:02:00,
2013-03-13 00:12:00,19.0,16.0,-100.00,NNW,335,18.0,27.0,87,0.00,,,0.00,,2013-03-13 05:12:00,
2013-03-13 00:22:00,19.0,16.0,-100.00,NNW,335,19.0,27.0,86,0.00,,,0.00,,2013-03-13 05:22:00,
2013-03-13 00:23:00,18.0,16.0,-100.00,NW,325,15.0,19.0,90,0.00,,,0.00,,2013-03-13 05:23:00,
2013-03-13 00:32:00,19.0,16.0,-100.00,NW,325,15.0,25.0,87,0.00,,,0.00,,2013-03-13 05:32:00,
2013-03-13 00:42:00,19.0,16.0,-100.00,NNW,335,16.0,24.0,88,0.00,,,0.00,,2013-03-13 05:42:00,
2013-03-13 00:52:00,19.0,16.0,-100.00,NNW,330,14.0,20.0,89,0.00,,,0.00,,2013-03-13 05:52:00,
2013-03-13 01:02:00,18.0,16.0,-100.00,NNW,335,15.0,22.0,89,0.00,,,0.00,,2013-03-13 06:02:00,
2013-03-13 01:32:00,19.0,16.0,-100.00,NW,320,16.0,21.0,90,0.00,,,0.00,,2013-03-13 06:32:00,
2013-03-13 01:42:00,19.0,16.0,-100.00,NW,325,19.0,23.0,90,0.00,,,0.00,,2013-03-13 06:42:00,
2013-03-13 01:52:00,18.0,16.0,-100.00,NW,325,19.0,24.0,90,0.00,,,0.00,,2013-03-13 06:52:00,
2013-03-13 02:02:00,18.0,16.0,-100.00,NW,325,19.0,26.0,89,0.00,,,0.00,,2013-03-13 07:02:00,
2013-03-13 02:03:00,18.0,16.0,-100.00,NNW,330,12.0,22.0,90,0.00,,,0.00,,2013-03-13 07:03:00,
2013-03-13 02:12:00,18.0,16.0,-100.00,NW,320,17.0,23.0,90,0.00,,,0.00,,2013-03-13 07:12:00,
2013-03-13 02:22:00,18.0,16.0,-100.00,NW,325,19.0,24.0,89,0.00,,,0.00,,2013-03-13 07:22:00,
2013-03-13 02:32:00,18.0,16.0,-100.00,NNW,330,16.0,23.0,89,0.00,,,0.00,,2013-03-13 07:32:00,
2013-03-13 02:42:00,18.0,16.0,-100.00,NNW,335,16.0,24.0,89,0.00,,,0.00,,2013-03-13 07:42:00,
2013-03-13 02:43:00,17.0,16.0,-100.00,NW,325,14.0,19.0,91,0.00,,,0.00,,2013-03-13 07:43:00,
2013-03-13 02:52:00,18.0,16.0,-100.00,NNW,330,15.0,22.0,90,0.00,,,0.00,,2013-03-13 07:52:00,
2013-03-13 02:53:00,17.0,16.0,-100.00,NW,315,14.0,19.0,91,0.00,,,0.00,,2013-03-13 07:53:00,
2013-03-13 03:12:00,18.0,16.0,-100.00,NW,325,16.0,17.0,90,0.00,,,0.00,,2013-03-13 08:12:00,
2013-03-13 03:22:00,18.0,16.0,-100.00,NW,325,14.0,19.0,90,0.00,,,0.00,,2013-03-13 08:22:00,
2013-03-13 03:32:00,18.0,16.0,-100.00,NNW,330,14.0,17.0,91,0.00,,,0.00,,2013-03-13 08:32:00,
2013-03-13 04:02:00,17.0,16.0,-100.00,NW,310,11.0,17.0,92,0.00,,,0.00,,2013-03-13 09:02:00,
2013-03-13 04:12:00,17.0,16.0,-100.00,NNW,330,14.0,19.0,91,0.00,,,0.00,,2013-03-13 09:12:00,
2013-03-13 04:22:00,17.0,16.0,-100.00,NNW,335,13.0,19.0,91,0.00,,,0.00,,2013-03-13 09:22:00,
2013-03-13 04:32:00,17.0,16.0,-100.00,NW,325,14.0,20.0,91,0.00,,,0.00,,2013-03-13 09:32:00,
2013-03-13 04:42:00,17.0,14.0,-100.00,NW,320,16.0,19.0,91,0.00,,,0.00,,2013-03-13 09:42:00,
2013-03-13 04:52:00,17.0,14.0,-100.00,NW,320,13.0,19.0,92,0.00,,,0.00,,2013-03-13 09:52:00,
2013-03-13 05:02:00,17.0,14.0,-100.00,NW,315,12.0,17.0,92,0.00,,,0.00,,2013-03-13 10:02:00,
2013-03-13 05:12:00,17.0,16.0,-100.00,NW,310,11.0,14.0,93,0.00,,,0.00,,2013-03-13 10:12:00,
2013-03-13 05:22:00,17.0,16.0,-100.00,NW,325,14.0,17.0,93,0.00,,,0.00,,2013-03-13 10:22:00,
2013-03-13 05:32:00,17.0,16.0,-100.00,NW,320,13.0,19.0,93,0.00,,,0.00,,2013-03-13 10:32:00,
2013-03-13 05:42:00,17.0,16.0,-100.00,NW,310,11.0,16.0,94,0.00,,,0.00,,2013-03-13 10:42:00,
2013-03-13 05:52:00,16.0,14.0,-100.00,NW,305,14.0,19.0,93,0.00,,,0.00,,2013-03-13 10:52:00,
2013-03-13 06:02:00,16.0,14.0,-100.00,NW,305,17.0,21.0,93,0.00,,,0.00,,2013-03-13 11:02:00,
2013-03-13 06:12:00,16.0,14.0,-100.00,WNW,300,17.0,21.0,93,0.00,,,0.00,,2013-03-13 11:12:00,
2013-03-13 06:22:00,16.0,14.0,-100.00,WNW,295,16.0,20.0,93,0.00,,,0.00,,2013-03-13 11:22:00,
2013-03-13 06:32:00,16.0,14.0,-100.00,NW,315,14.0,20.0,94,0.00,,,0.00,,2013-03-13 11:32:00,
2013-03-13 06:42:00,15.0,14.0,-100.00,NW,310,13.0,16.0,94,0.00,,,0.00,,2013-03-13 11:42:00,
2013-03-13 06:52:00,15.0,14.0,-100.00,WNW,300,11.0,15.0,95,0.00,,,0.00,,2013-03-13 11:52:00,
2013-03-13 07:02:00,15.0,14.0,-100.00,NW,305,10.0,14.0,95,0.00,,,0.00,,2013-03-13 12:02:00,
2013-03-13 07:22:00,15.0,14.0,-100.00,NW,320,9.0,14.0,95,0.00,,,0.00,,2013-03-13 12:22:00,
2013-03-13 07:32:00,15.0,14.0,-100.00,NW,310,7.0,11.0,95,0.00,,,0.00,,2013-03-13 12:32:00,
2013-03-13 07:33:00,14.0,12.0,-100.00,NW,320,11.0,14.0,96,0.00,,,0.00,,2013-03-13 12:33:00,
2013-03-13 07:42:00,15.0,14.0,-100.00,NW,310,9.0,12.0,95,0.00,,,0.00,,2013-03-13 12:42:00,
2013-03-13 07:43:00,14.0,12.0,-100.00,NW,310,11.0,15.0,95,0.00,,,0.00,,2013-03-13 12:43:00,
2013-03-13 07:52:00,14.0,14.0,-100.00,NW,320,10.0,13.0,95,0.00,,,0.00,,2013-03-13 12:52:00,
2013-03-13 08:02:00,14.0,14.0,-100.00,NW,325,8.0,12.0,96,0.00,,,0.00,,2013-03-13 13:02:00,
2013-03-13 08:12:00,14.0,14.0,-100.00,NW,305,9.0,12.0,96,0.00,,,0.00,,2013-03-13 13:12:00,
2013-03-13 08:22:00,14.0,12.0,-100.00,NW,315,9.0,12.0,96,0.00,,,0.00,,2013-03-13 13:22:00,
2013-03-13 08:33:00,15.0,12.0,-100.00,NW,305,9.0,12.0,90,0.00,,,0.00,,2013-03-13 13:33:00,
2013-03-13 08:52:00,14.0,12.0,-100.00,NW,315,11.0,13.0,94,0.00,,,0.00,,2013-03-13 13:52:00,
2013-03-13 09:02:00,14.0,12.0,-100.00,NW,310,9.0,12.0,94,0.00,,,0.00,,2013-03-13 14:02:00,
2013-03-13 09:03:00,16.0,14.0,-100.00,NW,325,9.0,11.0,89,0.00,,,0.00,,2013-03-13 14:03:00,
2013-03-13 09:22:00,15.0,12.0,-100.00,NW,305,9.0,12.0,91,0.00,,,0.00,,2013-03-13 14:22:00,
2013-03-13 09:42:00,15.0,12.0,-100.00,NW,305,9.0,10.0,90,0.00,,,0.00,,2013-03-13 14:42:00,
2013-03-13 09:52:00,16.0,14.0,-100.00,NW,310,9.0,12.0,90,0.00,,,0.00,,2013-03-13 14:52:00,
2013-03-13 10:03:00,18.0,14.0,-100.00,NW,325,8.0,11.0,86,0.00,,,0.00,,2013-03-13 15:03:00,
2013-03-13 10:12:00,17.0,14.0,-100.00,NW,310,8.0,11.0,89,0.00,,,0.00,,2013-03-13 15:12:00,
2013-03-13 10:22:00,17.0,14.0,-100.00,NW,315,10.0,12.0,88,0.00,,,0.00,,2013-03-13 15:22:00,
2013-03-13 10:32:00,17.0,14.0,-100.00,NW,305,9.0,12.0,88,0.00,,,0.00,,2013-03-13 15:32:00,
2013-03-13 10:42:00,17.0,14.0,-100.00,NW,310,9.0,12.0,88,0.00,,,0.00,,2013-03-13 15:42:00,
2013-03-13 10:52:00,18.0,16.0,-100.00,NW,310,9.0,12.0,88,0.00,,,0.00,,2013-03-13 15:52:00,
2013-03-13 11:22:00,19.0,16.0,-100.00,WNW,300,9.0,11.0,85,0.00,,,0.00,,2013-03-13 16:22:00,
2013-03-13 11:32:00,19.0,16.0,-100.00,NW,325,9.0,10.0,84,0.00,,,0.00,,2013-03-13 16:32:00,
2013-03-13 11:42:00,20.0,16.0,-100.00,NW,320,7.0,10.0,84,0.00,,,0.00,,2013-03-13 16:42:00,
2013-03-13 11:52:00,20.0,16.0,-100.00,NW,320,7.0,11.0,83,0.00,,,0.00,,2013-03-13 16:52:00,
2013-03-13 11:53:00,24.0,18.0,-100.00,West,280,4.0,7.0,78,0.00,,,0.00,,2013-03-13 16:53:00,
2013-03-13 12:02:00,21.0,18.0,-100.00,NW,320,7.0,9.0,83,0.00,,,0.00,,2013-03-13 17:02:00,
2013-03-13 12:12:00,22.0,18.0,-100.00,NW,315,6.0,9.0,82,0.00,,,0.00,,2013-03-13 17:12:00,
2013-03-13 12:22:00,22.0,18.0,-100.00,NW,310,6.0,10.0,82,0.00,,,0.00,,2013-03-13 17:22:00,
2013-03-13 12:32:00,22.0,16.0,-100.00,NW,325,6.0,10.0,80,0.00,,,0.00,,2013-03-13 17:32:00,
2013-03-13 12:33:00,27.0,18.0,-100.00,WSW,250,2.0,3.0,68,0.00,,,0.00,,2013-03-13 17:33:00,
2013-03-13 12:42:00,23.0,18.0,-100.00,NW,320,4.0,7.0,80,0.00,,,0.00,,2013-03-13 17:42:00,
2013-03-13 13:02:00,24.0,18.0,-100.00,NNW,335,2.0,6.0,76,0.00,,,0.00,,2013-03-13 18:02:00,
2013-03-13 13:22:00,25.0,19.0,-100.00,NW,325,2.0,4.0,76,0.00,,,0.00,,2013-03-13 18:22:00,
2013-03-13 13:42:00,28.0,19.0,-100.00,West,265,0.0,3.0,68,0.00,,,0.00,,2013-03-13 18:42:00,
2013-03-13 13:43:00,27.0,18.0,-100.00,SSW,200,7.0,9.0,66,0.00,,,0.00,,2013-03-13 18:43:00,
2013-03-13 13:52:00,27.0,18.0,-100.00,WNW,295,2.0,3.0,67,0.00,,,0.00,,2013-03-13 18:52:00,
2013-03-13 14:02:00,26.0,18.0,-100.00,West,270,2.0,6.0,69,0.00,,,0.00,,2013-03-13 19:02:00,
2013-03-13 14:12:00,27.0,18.0,-100.00,SW,225,3.0,5.0,70,0.00,,,0.00,,2013-03-13 19:12:00,
2013-03-13 14:22:00,27.0,19.0,-100.00,SW,235,4.0,4.0,70,0.00,,,0.00,,2013-03-13 19:22:00,
2013-03-13 14:32:00,27.0,18.0,-100.00,West,265,3.0,6.0,70,0.00,,,0.00,,2013-03-13 19:32:00,
2013-03-13 14:52:00,28.0,19.0,-100.00,WSW,245,5.0,8.0,68,0.00,,,0.00,,2013-03-13 19:52:00,
2013-03-13 15:02:00,29.0,19.0,-100.00,WSW,250,5.0,7.0,67,0.00,,,0.00,,2013-03-13 20:02:00,
2013-03-13 15:22:00,29.0,19.0,-100.00,West,260,6.0,7.0,66,0.00,,,0.00,,2013-03-13 20:22:00,
2013-03-13 15:32:00,30.0,19.0,-100.00,SW,235,2.0,7.0,64,0.00,,,0.00,,2013-03-13 20:32:00,
2013-03-13 15:33:00,31.0,21.0,-100.00,SSW,200,6.0,9.0,67,0.00,,,0.00,,2013-03-13 20:33:00,
2013-03-13 15:42:00,30.0,19.0,-100.00,WSW,245,4.0,6.0,65,0.00,,,0.00,,2013-03-13 20:42:00,
2013-03-13 15:52:00,30.0,19.0,-100.00,WSW,240,3.0,8.0,64,0.00,,,0.00,,2013-03-13 20:52:00,
2013-03-13 16:02:00,31.0,19.0,-100.00,WSW,240,4.0,6.0,64,0.00,,,0.00,,2013-03-13 21:02:00,
2013-03-13 16:12:00,30.0,19.0,-100.00,SW,230,6.0,7.0,66,0.00,,,0.00,,2013-03-13 21:12:00,
2013-03-13 16:22:00,30.0,21.0,-100.00,SSW,210,7.0,10.0,67,0.00,,,0.00,,2013-03-13 21:22:00,
2013-03-13 16:42:00,31.0,21.0,-100.00,SW,225,7.0,10.0,67,0.00,,,0.00,,2013-03-13 21:42:00,
2013-03-13 16:52:00,31.0,21.0,-100.00,South,170,6.0,11.0,69,0.00,,,0.00,,2013-03-13 21:52:00,
2013-03-13 17:02:00,31.0,23.0,-100.00,South,170,9.0,10.0,70,0.00,,,0.00,,2013-03-13 22:02:00,
2013-03-13 17:22:00,31.0,23.0,-100.00,South,185,10.0,13.0,73,0.00,,,0.00,,2013-03-13 22:22:00,
2013-03-13 17:32:00,31.0,25.0,-100.00,SSE,165,9.0,12.0,75,0.00,,,0.00,,2013-03-13 22:32:00,
2013-03-13 17:42:00,31.0,23.0,-100.00,South,185,11.0,13.0,73,0.00,,,0.00,,2013-03-13 22:42:00,
2013-03-13 17:52:00,30.0,23.0,-100.00,South,180,11.0,13.0,72,0.00,,,0.00,,2013-03-13 22:52:00,
2013-03-13 18:02:00,30.0,23.0,-100.00,South,190,12.0,15.0,72,0.00,,,0.00,,2013-03-13 23:02:00,
2013-03-13 18:12:00,31.0,21.0,-100.00,SSW,205,13.0,16.0,70,0.00,,,0.00,,2013-03-13 23:12:00,
2013-03-13 18:22:00,31.0,23.0,-100.00,SSW,205,12.0,15.0,73,0.00,,,0.00,,2013-03-13 23:22:00,
2013-03-13 18:32:00,30.0,23.0,-100.00,SSW,200,12.0,16.0,72,0.00,,,0.00,,2013-03-13 23:32:00,
2013-03-13 18:42:00,30.0,21.0,-100.00,SSW,195,10.0,14.0,71,0.00,,,0.00,,2013-03-13 23:42:00,
2013-03-13 18:52:00,30.0,23.0,-100.00,South,185,13.0,16.0,77,0.00,,,0.00,,2013-03-13 23:52:00,
2013-03-13 19:02:00,29.0,23.0,-100.00,South,185,12.0,15.0,76,0.00,,,0.00,,2013-03-14 00:02:00,
2013-03-13 19:22:00,29.0,23.0,-100.00,South,190,12.0,15.0,75,0.00,,,0.00,,2013-03-14 00:22:00,
2013-03-13 19:32:00,29.0,23.0,-100.00,South,190,12.0,16.0,77,0.00,,,0.00,,2013-03-14 00:32:00,
2013-03-13 19:42:00,29.0,23.0,-100.00,SSW,200,12.0,17.0,78,0.00,,,0.00,,2013-03-14 00:42:00,
2013-03-13 19:52:00,29.0,23.0,-100.00,South,190,12.0,17.0,77,0.00,,,0.00,,2013-03-14 00:52:00,
2013-03-13 20:02:00,28.0,23.0,-100.00,South,190,14.0,17.0,79,0.00,,,0.00,,2013-03-14 01:02:00,
2013-03-13 20:12:00,28.0,23.0,-100.00,SSW,200,12.0,17.0,82,0.00,,,0.00,,2013-03-14 01:12:00,
2013-03-13 20:22:00,28.0,25.0,-100.00,South,190,12.0,17.0,83,0.00,,,0.00,,2013-03-14 01:22:00,
2013-03-13 20:32:00,28.0,23.0,-100.00,SSW,200,14.0,17.0,82,0.00,,,0.00,,2013-03-14 01:32:00,
2013-03-13 20:42:00,28.0,23.0,-100.00,South,190,14.0,17.0,82,0.00,,,0.00,,2013-03-14 01:42:00,
2013-03-13 20:52:00,28.0,23.0,-100.00,South,185,13.0,17.0,81,0.00,,,0.00,,2013-03-14 01:52:00,
2013-03-13 21:02:00,28.0,23.0,-100.00,South,190,17.0,21.0,80,0.00,,,0.00,,2013-03-14 02:02:00,
2013-03-13 21:22:00,27.0,21.0,-100.00,SSW,195,17.0,20.0,79,0.00,,,0.00,,2013-03-14 02:22:00,
2013-03-13 21:23:00,27.0,25.0,-100.00,South,190,17.0,22.0,88,0.00,,,0.00,,2013-03-14 02:23:00,
2013-03-13 21:32:00,28.0,23.0,-100.00,South,185,16.0,20.0,82,0.00,,,0.00,,2013-03-14 02:32:00,
2013-03-13 22:02:00,27.0,23.0,-100.00,South,190,17.0,22.0,85,0.00,,,0.00,,2013-03-14 03:02:00,
2013-03-13 22:12:00,27.0,23.0,-100.00,South,185,20.0,22.0,88,0.00,,,0.00,,2013-03-14 03:12:00,
2013-03-13 22:32:00,27.0,23.0,-100.00,South,185,15.0,21.0,88,0.00,,,0.00,,2013-03-14 03:32:00,
2013-03-13 22:42:00,27.0,23.0,-100.00,SSW,195,17.0,23.0,87,0.00,,,0.00,,2013-03-14 03:42:00,
2013-03-13 22:52:00,27.0,23.0,-100.00,SSW,195,20.0,26.0,87,0.00,,,0.00,,2013-03-14 03:52:00,
2013-03-13 23:22:00,27.0,23.0,-100.00,SSW,200,19.0,26.0,87,0.00,,,0.00,,2013-03-14 04:22:00,
2013-03-13 23:32:00,27.0,23.0,-100.00,SSW,200,24.0,28.0,86,0.00,,,0.00,,2013-03-14 04:32:00,
2013-03-13 23:33:00,28.0,25.0,-100.00,SSW,195,23.0,27.0,87,0.00,,,0.00,,2013-03-14 04:33:00,
2013-03-13 23:42:00,27.0,25.0,-100.00,SSW,195,19.0,28.0,88,0.00,,,0.00,,2013-03-14 04:42:00,
2013-03-13 23:52:00,27.0,25.0,-100.00,SSW,195,20.0,26.0,88,0.00,,,0.00,,2013-03-14 04:52:00,